Tracking 20721 objects as of 1-Jun-2020
HD Live streaming from Space Station
objects crossing your sky now

SL-14 DEB

Track SL-14 DEB now!
10-day predictions


NORAD ID: 26029
Int'l Code: 1991-068AQ
Perigee: 1,415.0 km
Apogee: 1,476.0 km
Inclination: 82.6 °
Period: 114.6 minutes
Semi major axis: 7816 km
RCS: 0.0153 m2 (small)
Launch date: September 28, 1991
Source: Commonwealth of Independent States (former USSR) (CIS)
Launch site: PLESETSK MISSILE AND SPACE COMPLEX (PKMTR)

Note: This is SATELLITE DEBRIS
aabbcc
Your satellite tracking list
Your tracking list is empty




NASA's NSSDC Master Catalog

Two Line Element Set (TLE):
1 26029U 91068AQ  20151.59533863 +.00000015 +00000-0 +32591-4 0  9994
2 26029 082.5735 017.3233 0039027 287.4566 101.0059 12.56264480966138
Source of the keplerian elements: AFSPC